Location: *
(13.0000°N, 151.6000°E)
Time: 04:01:56
(UTC+00:00)

Cosmos 1356 - Pass Details

Date: 01 April 2020
Orbit: 444 x 447 km, 81.1° (Epoch: 24 May)

Event Time Altitude Azimuth Distance (km) Brightness Sun altitude
Rises 19:11:38 0° 348° (NNW) 2,430 7.1 -9.9°
Reaches altitude 10° 19:13:42 10° 345° (NNW) 1,559 6.1 -9.4°
Maximum altitude 19:17:03 58° 265° (W) 521 3.4 -8.6°
Drops below altitude 10° 19:20:24 10° 185° (S) 1,557 6.0 -7.8°
Sets 19:22:28 0° 181° (S) 2,426 7.0 -7.3°
